CW8429 Weather Reports


Display with metric or nautical units.
time (UTC)temp
F
wind
direction
speed
MPH
gust
MPH
rain 1hr
in
rain 24hr
in
rain mn
in
humidity
%
barometer
mb
20260905100617 69 150 7.0 12.0 0.00 0.00 0.00 29 1015.8
20260905095619 69 148 8.0 10.0 0.00 0.00 0.00 29 1015.8
20260905094614 69 139 7.0 11.0 0.00 0.00 0.00 29 1015.7
20260905093646 69 153 8.0 14.0 0.00 0.00 0.00 29 1015.5
20260905092616 69 167 7.0 10.0 0.00 0.00 0.00 29 1015.6
20260905091627 69 160 4.0 8.0 0.00 0.00 0.00 29 1015.5
20260905090622 70 157 5.0 10.0 0.00 0.00 0.00 28 1015.3
20260905085646 69 148 5.0 8.0 0.00 0.00 0.00 28 1015.4
20260905084616 70 168 6.0 10.0 0.00 0.00 0.00 28 1015.3
20260905083627 70 157 6.0 11.0 0.00 0.00 0.00 28 1015.1
20260905082622 71 151 8.0 17.0 0.00 0.00 0.00 27 1015.1
20260905081613 71 123 8.0 13.0 0.00 0.00 0.00 27 1015.0
20260905080625 71 96 9.0 13.0 0.00 0.00 0.00 27 1015.0
20260905075628 71 136 8.0 14.0 0.00 0.00 0.00 27 1015.0
20260905074622 71 133 8.0 14.0 0.00 0.00 0.00 27 1014.9
20260905073613 71 144 7.0 13.0 0.00 0.00 0.00 27 1014.9
20260905072625 71 142 9.0 12.0 0.00 0.00 0.00 27 1014.8
20260905071620 71 103 6.0 12.0 0.00 0.00 0.00 27 1014.6
20260905070631 71 160 8.0 11.0 0.00 0.00 0.00 27 1014.7
20260905065614 72 147 6.0 11.0 0.00 0.00 0.00 27 1014.7
20260905064626 72 158 8.0 14.0 0.00 0.00 0.00 27 1014.5
20260905063620 72 113 7.0 12.0 0.00 0.00 0.00 27 1014.3
20260905062612 72 150 8.0 13.0 0.00 0.00 0.00 27 1014.2
20260905061643 72 125 10.0 14.0 0.00 0.00 0.00 28 1014.1
20260905060640 71 138 7.0 11.0 0.00 0.00 0.00 29 1014.0
20260905055622 71 142 7.0 12.0 0.00 0.00 0.00 29 1014.1
20260905054617 72 136 7.0 12.0 0.00 0.00 0.00 29 1014.1
20260905053628 71 148 6.0 11.0 0.00 0.00 0.00 29 1014.1
20260905052619 69 148 4.0 9.0 0.00 0.00 0.00 30 1014.0
20260905051630 71 161 2.0 8.0 0.00 0.00 0.00 29 1014.0
20260905050625 70 95 3.0 10.0 0.00 0.00 0.00 30 1014.0
20260905045646 66 157 0.0 4.0 0.00 0.00 0.00 36 1014.0
20260905044614 71 246 3.0 8.0 0.00 0.00 0.00 32 1014.0
20260905043644 72 162 6.0 10.0 0.00 0.00 0.00 27 1013.8
20260905042618 70 162 5.0 8.0 0.00 0.00 0.00 28 1013.6
20260905041628 70 248 2.0 7.0 0.00 0.00 0.00 28 1013.7
20260905040618 71 198 3.0 9.0 0.00 0.00 0.00 27 1013.6
20260905035620 71 154 6.0 9.0 0.00 0.00 0.00 26 1013.7
20260905034635 70 152 5.0 8.0 0.00 0.00 0.00 26 1013.7
20260905033645 69 153 6.0 9.0 0.00 0.00 0.00 28 1013.7
20260905032614 68 183 2.0 4.0 0.00 0.00 0.00 29 1013.8
20260905031623 69 207 1.0 4.0 0.00 0.00 0.00 28 1013.8
20260905030618 70 207 3.0 5.0 0.00 0.00 0.00 27 1013.7
20260905025620 72 210 2.0 7.0 0.00 0.00 0.00 26 1013.5
20260905024650 74 159 6.0 9.0 0.00 0.00 0.00 22 1013.2
20260905023640 74 137 7.0 9.0 0.00 0.00 0.00 22 1013.1
20260905022650 75 147 6.0 11.0 0.00 0.00 0.00 22 1013.0
20260905021644 75 147 6.0 9.0 0.00 0.00 0.00 21 1013.0
20260905020613 76 134 6.0 10.0 0.00 0.00 0.00 20 1013.0
20260905015615 76 175 6.0 11.0 0.00 0.00 0.00 20 1013.0
20260905014625 77 163 7.0 11.0 0.00 0.00 0.00 20 1013.0
20260905013619 77 111 5.0 11.0 0.00 0.00 0.00 20 1013.0
20260905012629 77 170 4.0 8.0 0.00 0.00 0.00 21 1013.1
20260905011641 77 78 4.0 6.0 0.00 0.00 0.00 21 1012.9
20260905010650 77 144 3.0 6.0 0.00 0.00 0.00 22 1013.0
20260905005614 77 177 3.0 6.0 0.00 0.00 0.00 22 1013.0
20260905004624 78 90 3.0 6.0 0.00 0.00 0.00 20 1013.0
20260905003635 78 310 3.0 11.0 0.00 0.00 0.00 20 1012.8
20260905002624 79 272 3.0 9.0 0.00 0.00 0.00 20 1012.8
20260905001618 79 250 6.0 12.0 0.00 0.00 0.00 20 1012.8
20260905000629 80 182 5.0 12.0 0.00 0.00 0.00 20 1012.8
20260904235630 80 96 6.0 14.0 0.00 0.00 0.00 19 1012.7
20260904234620 80 100 7.0 17.0 0.00 0.00 0.00 18 1012.8
20260904233614 79 198 5.0 11.0 0.00 0.00 0.00 20 1012.8
20260904232624 80 59 7.0 14.0 0.00 0.00 0.00 19 1012.9
20260904231613 80 53 4.0 15.0 0.00 0.00 0.00 20 1013.0
20260904230623 80 162 10.0 16.0 0.00 0.00 0.00 18 1013.0
20260904225623 80 217 4.0 12.0 0.00 0.00 0.00 20 1012.8
20260904224616 79 182 6.0 12.0 0.00 0.00 0.00 21 1012.9
20260904223647 79 159 7.0 11.0 0.00 0.00 0.00 21 1012.9
20260904222614 79 355 8.0 13.0 0.00 0.00 0.00 20 1013.1
20260904221643 80 151 6.0 13.0 0.00 0.00 0.00 21 1013.0
20260904220615 79 134 5.0 15.0 0.00 0.00 0.00 22 1013.1
20260904215617 79 298 5.0 16.0 0.00 0.00 0.00 21 1013.0
20260904214627 79 176 6.0 11.0 0.00 0.00 0.00 22 1013.2
20260904213617 80 71 7.0 18.0 0.00 0.00 0.00 21 1013.3
20260904212630 79 191 4.0 13.0 0.00 0.00 0.00 21 1013.3
20260904211618 79 250 6.0 15.0 0.00 0.00 0.00 21 1013.3
20260904210647 78 83 8.0 18.0 0.00 0.00 0.00 21 1013.4
20260904205626 78 155 7.0 15.0 0.00 0.00 0.00 24 1013.4
20260904204621 78 139 6.0 16.0 0.00 0.00 0.00 22 1013.5
20260904203652 78 128 4.0 19.0 0.00 0.00 0.00 22 1013.4
20260904202620 78 71 7.0 12.0 0.00 0.00 0.00 21 1013.4
20260904201629 78 185 5.0 18.0 0.00 0.00 0.00 23 1013.4
20260904200622 78 309 7.0 16.0 0.00 0.00 0.00 22 1013.4
20260904195623 77 159 7.0 17.0 0.00 0.00 0.00 23 1013.5
20260904194614 77 355 5.0 12.0 0.00 0.00 0.00 22 1013.6
20260904193623 77 115 6.0 17.0 0.00 0.00 0.00 22 1013.6
20260904192616 76 49 11.0 19.0 0.00 0.00 0.00 21 1013.9
20260904191624 76 206 5.0 18.0 0.00 0.00 0.00 22 1013.9
20260904190613 76 182 6.0 16.0 0.00 0.00 0.00 23 1014.0
20260904185615 76 158 6.0 15.0 0.00 0.00 0.00 22 1013.9
20260904184628 76 131 6.0 14.0 0.00 0.00 0.00 22 1014.1
20260904183617 75 112 7.0 15.0 0.00 0.00 0.00 22 1014.3
20260904182626 75 167 4.0 13.0 0.00 0.00 0.00 24 1014.4
20260904181614 75 134 7.0 13.0 0.00 0.00 0.00 22 1014.5
20260904180614 75 199 11.0 17.0 0.00 0.00 0.00 21 1014.5
20260904175621 75 293 5.0 20.0 0.00 0.00 0.00 22 1014.6
20260904174630 74 96 12.0 28.0 0.00 0.00 0.00 21 1014.3
20260904173642 74 170 12.0 21.0 0.00 0.00 0.00 21 1014.6
20260904172631 74 113 5.0 21.0 0.00 0.00 0.00 22 1014.5
20260904171626 74 125 4.0 17.0 0.00 0.00 0.00 23 1014.6
20260904170637 73 99 9.0 19.0 0.00 0.00 0.00 21 1014.5
20260904165639 73 155 11.0 25.0 0.00 0.00 0.00 20 1014.5
20260904164630 73 114 11.0 23.0 0.00 0.00 0.00 20 1014.4
20260904163624 73 186 12.0 19.0 0.00 0.00 0.00 19 1014.3
20260904162635 72 298 6.0 12.0 0.00 0.00 0.00 21 1014.3
20260904161625 72 336 10.0 20.0 0.00 0.00 0.00 20 1014.4
20260904160615 72 184 4.0 9.0 0.00 0.00 0.00 22 1014.3
20260904155622 71 202 3.0 7.0 0.00 0.00 0.00 21 1014.4
20260904154614 70 163 6.0 13.0 0.00 0.00 0.00 21 1014.3
20260904142643 58 204 1.0 3.0 0.00 0.00 0.00 35 1014.1
20260904141613 56 204 2.0 4.0 0.00 0.00 0.00 33 1014.2
20260904140624 55 229 0.0 1.0 0.00 0.00 0.00 33 1014.1
20260904135627 55 229 1.0 4.0 0.00 0.00 0.00 34 1013.9
20260904134622 55 202 2.0 5.0 0.00 0.00 0.00 32 1013.9
20260904133613 54 277 0.0 2.0 0.00 0.00 0.00 34 1013.8
20260904132625 54 277 0.0 4.0 0.00 0.00 0.00 34 1013.7
20260904131617 55 276 2.0 6.0 0.00 0.00 0.00 34 1013.4
20260904130612 57 286 1.0 5.0 0.00 0.00 0.00 30 1013.2
20260904125615 58 136 3.0 9.0 0.00 0.00 0.00 27 1013.0
20260904124626 59 108 1.0 6.0 0.00 0.00 0.00 27 1012.9
20260904123621 59 186 4.0 6.0 0.00 0.00 0.00 27 1012.8
20260904122613 58 189 4.0 6.0 0.00 0.00 0.00 28 1012.7
20260904121623 57 246 0.0 0.0 0.00 0.00 0.00 29 1012.5
20260904120616 56 281 0.0 0.0 0.00 0.00 0.00 30 1012.4
20260904115623 56 281 0.0 0.0 0.00 0.00 0.00 32 1012.4
20260904114615 56 281 0.0 0.0 0.00 0.00 0.00 31 1012.4
20260904113627 56 281 0.0 4.0 0.00 0.00 0.00 32 1012.3
20260904112618 56 281 0.0 4.0 0.00 0.00 0.00 34 1012.4
20260904111612 56 281 2.0 4.0 0.00 0.00 0.00 32 1012.3
20260904110621 56 281 0.0 4.0 0.00 0.00 0.00 32 1012.3
20260904105623 57 281 2.0 4.0 0.00 0.00 0.00 33 1012.2
20260904104614 57 279 3.0 8.0 0.00 0.00 0.00 32 1012.0
20260904103647 59 271 2.0 5.0 0.00 0.00 0.00 31 1011.9
20260904102616 63 317 2.0 9.0 0.00 0.00 0.00 27 1011.9
20260904101625 66 160 5.0 11.0 0.00 0.00 0.00 19 1011.7